Location: ??????????
(41.2581°N, 22.8006°E)
Time: 00:39:07
(UTC+00:00)

GEOS 3 Rocket - Pass Details

Date: 17 March 2026
Orbit: 767 x 846 km, 115.0° (Epoch: 13 April)

Event Time Altitude Azimuth Distance (km) Brightness Sun altitude
Rises 03:55:49 0° 28° (NNE) 3,413 7.4 -8.7°
Reaches altitude 10° 03:58:21 10° 19° (NNE) 2,475 6.5 -8.2°
Maximum altitude 04:03:05 32° 318° (NW) 1,402 4.6 -7.3°
Drops below altitude 10° 04:07:47 10° 256° (WSW) 2,450 5.5 -6.4°
Enters shadow 04:08:37 - 252° (WSW) 2,750 5.7 -6.3°
